,,Stat6,,Stat2,,Stat8,,Stat9,,Stat10,,Wind1,,Wind1,
time,status,PA1M_AVG,status,PR1M_SUM,status,RH1M_AVG,status,SR1M_AVG,status,TA1M_AVG,status,W1dAve1m,status,W1sAve1m,
2007-11-29, 00:00:00,VALID,917.454,VALID,0,VALID,100,VALID,-0.101885,VALID,17.934,VALID,196,VALID,0,
2007-11-29, 00:01:00,VALID,917.437,VALID,0,VALID,100,VALID,-0.101885,VALID,17.9181,VALID,196,VALID,0,
2007-11-29, 00:02:00,VALID,917.439,VALID,0,VALID,100,VALID,-0.101885,VALID,17.9308,VALID,196,VALID,0,
2007-11-29, 00:03:00,VALID,917.42,VALID,0,VALID,100,VALID,-0.101885,VALID,17.9343,VALID,196,VALID,0,
2007-11-29, 00:04:00,VALID,917.404,VALID,0,VALID,100,VALID,-0.101885,VALID,17.9176,VALID,196,VALID,0,
2007-11-29, 00:05:00,VALID,917.4,VALID,0,VALID,100,VALID,-0.101885,VALID,17.9083,VALID,196,VALID,0,
2007-11-29, 00:06:00,VALID,917.386,VALID,0,VALID,100,VALID,-0.101885,VALID,17.8718,VALID,196,VALID,0,
2007-11-29, 00:07:00,VALID,917.38,VALID,0,VALID,100,VALID,-0.101885,VALID,17.8398,VALID,196,VALID,0,
2007-11-29, 00:08:00,VALID,917.381,VALID,0,VALID,100,VALID,-0.135847,VALID,17.8632,VALID,196,VALID,0.129002,
2007-11-29, 00:09:00,VALID,917.372,VALID,0,VALID,100,VALID,-0.135847,VALID,17.8664,VALID,196,VALID,0.00710227,
2007-11-29, 00:10:00,VALID,917.362,VALID,0,VALID,100,VALID,-0.118866,VALID,17.8789,VALID,191,VALID,0.409157,
2007-11-29, 00:11:00,VALID,917.357,VALID,0,VALID,100,VALID,-0.118866,VALID,17.9023,VALID,165,VALID,0.627539,
2007-11-29, 00:12:00,VALID,917.35,VALID,0,VALID,100,VALID,-0.0169808,VALID,17.913,VALID,157,VALID,0.545313,
2007-11-29, 00:13:00,VALID,917.355,VALID,0,VALID,100,VALID,0,VALID,17.9327,VALID,154,VALID,0.662305,
2007-11-29, 00:14:00,VALID,917.346,VALID,0,VALID,100,VALID,-0.0339617,VALID,17.9398,VALID,148,VALID,0.716493,
2007-11-29, 00:15:00,VALID,917.341,VALID,0,VALID,100,VALID,-0.0169808,VALID,17.9491,VALID,139,VALID,0.936955,
2007-11-29, 00:16:00,VALID,917.322,VALID,0,VALID,100,VALID,0,VALID,17.9651,VALID,137,VALID,1.02418,
2007-11-29, 00:17:00,VALID,917.302,VALID,0,VALID,100,VALID,0.0169808,VALID,17.9878,VALID,138,VALID,1.02743,
2007-11-29, 00:18:00,VALID,917.279,VALID,0,VALID,100,VALID,0.0169808,VALID,17.9904,VALID,135,VALID,1.13783,
2007-11-29, 00:19:00,VALID,917.269,VALID,0,VALID,100,VALID,0,VALID,17.9748,VALID,128,VALID,1.06696,
2007-11-29, 00:20:00,VALID,917.244,VALID,0,VALID,100,VALID,0,VALID,17.9524,VALID,120,VALID,1.23558,
2007-11-29, 00:21:00,VALID,917.219,VALID,0,VALID,100,VALID,0,VALID,17.9035,VALID,112,VALID,1.02071,
2007-11-29, 00:22:00,VALID,917.204,VALID,0,VALID,100,VALID,0,VALID,17.8715,VALID,115,VALID,1.06822,
2007-11-29, 00:23:00,VALID,917.182,VALID,0,VALID,100,VALID,-0.0169808,VALID,17.8551,VALID,119,VALID,1.25446,
2007-11-29, 00:24:00,VALID,917.168,VALID,0,VALID,100,VALID,-0.0169808,VALID,17.8356,VALID,109,VALID,0.89027,
2007-11-29, 00:25:00,VALID,917.159,VALID,0,VALID,100,VALID,-0.0169808,VALID,17.803,VALID,124,VALID,1.14258,
2007-11-29, 00:26:00,VALID,917.147,VALID,0,VALID,100,VALID,-0.0169808,VALID,17.8062,VALID,129,VALID,1.15774,
2007-11-29, 00:27:00,VALID,917.145,VALID,0,VALID,100,VALID,-0.0169808,VALID,17.8423,VALID,139,VALID,1.19717,
2007-11-29, 00:28:00,VALID,917.143,VALID,0,VALID,100,VALID,-0.0169808,VALID,17.8618,VALID,142,VALID,0.970898,
2007-11-29, 00:29:00,VALID,917.161,VALID,0,VALID,100,VALID,0,VALID,17.8845,VALID,149,VALID,1.20217,
2007-11-29, 00:30:00,VALID,917.151,VALID,0,VALID,100,VALID,0,VALID,17.9,VALID,146,VALID,1.12624,
2007-11-29, 00:31:00,VALID,917.146,VALID,0,VALID,100,VALID,-0.0169808,VALID,17.9202,VALID,148,VALID,1.39426,
2007-11-29, 00:32:00,VALID,917.14,VALID,0,VALID,100,VALID,-0.0169808,VALID,17.9234,VALID,152,VALID,1.50838,
2007-11-29, 00:33:00,VALID,917.13,VALID,0,VALID,100,VALID,-0.0169808,VALID,17.9234,VALID,149,VALID,1.05051,
2007-11-29, 00:34:00,VALID,917.121,VALID,0,VALID,100,VALID,0,VALID,17.9362,VALID,147,VALID,1.02754,
2007-11-29, 00:35:00,VALID,917.116,VALID,0,VALID,100,VALID,0,VALID,17.9561,VALID,144,VALID,1.11545,
2007-11-29, 00:36:00,VALID,917.116,VALID,0,VALID,100,VALID,0,VALID,17.9556,VALID,140,VALID,1.05227,
2007-11-29, 00:37:00,VALID,917.113,VALID,0,VALID,100,VALID,-0.0169808,VALID,17.9686,VALID,155,VALID,1.35956,
2007-11-29, 00:38:00,VALID,917.112,VALID,0,VALID,100,VALID,0,VALID,17.9748,VALID,151,VALID,0.835582,
2007-11-29, 00:39:00,VALID,917.111,VALID,0,VALID,100,VALID,0,VALID,18.0012,VALID,156,VALID,1.09598,
2007-11-29, 00:40:00,VALID,917.112,VALID,0,VALID,100,VALID,0,VALID,18.0337,VALID,153,VALID,1.41335,
2007-11-29, 00:41:00,VALID,917.118,VALID,0,VALID,100,VALID,0,VALID,18.0172,VALID,158,VALID,1.23377,
2007-11-29, 00:42:00,VALID,917.126,VALID,0,VALID,100,VALID,0,VALID,18.0239,VALID,163,VALID,1.13542,
2007-11-29, 00:43:00,VALID,917.119,VALID,0,VALID,100,VALID,-0.0169808,VALID,18.0274,VALID,160,VALID,1.25124,
2007-11-29, 00:44:00,VALID,917.123,VALID,0,VALID,100,VALID,-0.0509425,VALID,18.0436,VALID,160,VALID,1.06045,
2007-11-29, 00:45:00,VALID,917.113,VALID,0,VALID,100,VALID,-0.0339617,VALID,18.0436,VALID,148,VALID,0.959375,
2007-11-29, 00:46:00,VALID,917.114,VALID,0,VALID,100,VALID,-0.0339617,VALID,18.0469,VALID,159,VALID,1.19855,
2007-11-29, 00:47:00,VALID,917.114,VALID,0,VALID,100,VALID,0,VALID,18.0371,VALID,145,VALID,1.12358,
2007-11-29, 00:48:00,VALID,917.104,VALID,0,VALID,100,VALID,0,VALID,18.0436,VALID,141,VALID,0.935243,
2007-11-29, 00:49:00,VALID,917.099,VALID,0,VALID,100,VALID,0,VALID,18.0401,VALID,151,VALID,0.775298,
2007-11-29, 00:50:00,VALID,917.104,VALID,0,VALID,100,VALID,-0.0509425,VALID,18.0663,VALID,135,VALID,0.910065,
2007-11-29, 00:51:00,VALID,917.089,VALID,0,VALID,100,VALID,0,VALID,18.0696,VALID,148,VALID,1.05335,
2007-11-29, 00:52:00,VALID,917.075,VALID,0,VALID,100,VALID,0,VALID,18.0559,VALID,154,VALID,1.2479,
2007-11-29, 00:53:00,VALID,917.064,VALID,0,VALID,100,VALID,-0.0339617,VALID,18.0496,VALID,158,VALID,1.02649,
2007-11-29, 00:54:00,VALID,917.055,VALID,0,VALID,100,VALID,-0.0339617,VALID,18.0306,VALID,148,VALID,1.24219,
2007-11-29, 00:55:00,VALID,917.057,VALID,0,VALID,100,VALID,-0.0679233,VALID,18.0174,VALID,144,VALID,1.07031,
2007-11-29, 00:56:00,VALID,917.045,VALID,0,VALID,100,VALID,-0.0509425,VALID,17.9945,VALID,143,VALID,1.20759,
2007-11-29, 00:57:00,VALID,917.052,VALID,0,VALID,100,VALID,0,VALID,17.985,VALID,141,VALID,0.647195,
2007-11-29, 00:58:00,VALID,917.039,VALID,0,VALID,100,VALID,-0.0509425,VALID,17.972,VALID,139,VALID,0.476744,
2007-11-29, 00:59:00,VALID,917.039,VALID,0,VALID,100,VALID,-0.0169808,VALID,17.9656,VALID,158,VALID,1.30541,
2007-11-29, 01:00:00,VALID,917.032,VALID,0,VALID,100,VALID,-0.0169808,VALID,17.972,VALID,157,VALID,1.28817,
2007-11-29, 01:01:00,VALID,917.037,VALID,0,VALID,100,VALID,-0.0509425,VALID,17.9885,VALID,169,VALID,1.0923,
2007-11-29, 01:02:00,VALID,917.034,VALID,0,VALID,100,VALID,0,VALID,17.9913,VALID,173,VALID,0.943004,
2007-11-29, 01:03:00,VALID,917.042,VALID,0,VALID,100,VALID,0,VALID,17.9917,VALID,169,VALID,0.987305,
2007-11-29, 01:04:00,VALID,917.059,VALID,0,VALID,100,VALID,0,VALID,17.9788,VALID,176,VALID,0.956214,
2007-11-29, 01:05:00,VALID,917.063,VALID,0,VALID,100,VALID,-0.0339617,VALID,17.9656,VALID,175,VALID,0.795422,
2007-11-29, 01:06:00,VALID,917.069,VALID,0,VALID,100,VALID,-0.0339617,VALID,17.9748,VALID,174,VALID,0.825036,
2007-11-29, 01:07:00,VALID,917.084,VALID,0,VALID,100,VALID,0,VALID,17.9716,VALID,178,VALID,0.662538,
2007-11-29, 01:08:00,VALID,917.078,VALID,0,VALID,100,VALID,0,VALID,17.9688,VALID,186,VALID,1.23385,
2007-11-29, 01:09:00,VALID,917.079,VALID,0,VALID,100,VALID,0,VALID,17.9748,VALID,189,VALID,1.09821,
2007-11-29, 01:10:00,VALID,917.091,VALID,0,VALID,100,VALID,0.0169808,VALID,17.9716,VALID,179,VALID,0.914621,
2007-11-29, 01:11:00,VALID,917.082,VALID,0,VALID,100,VALID,0,VALID,17.9426,VALID,181,VALID,0.78311,
2007-11-29, 01:12:00,VALID,917.082,VALID,0,VALID,100,VALID,-0.0679233,VALID,17.9109,VALID,162,VALID,0.919695,
2007-11-29, 01:13:00,VALID,917.079,VALID,0,VALID,100,VALID,-0.0509425,VALID,17.9007,VALID,178,VALID,0.902244,
2007-11-29, 01:14:00,VALID,917.079,VALID,0,VALID,100,VALID,-0.0169808,VALID,17.9042,VALID,182,VALID,0.704055,
2007-11-29, 01:15:00,VALID,917.066,VALID,0,VALID,100,VALID,-0.0679233,VALID,17.9169,VALID,176,VALID,0.792683,
2007-11-29, 01:16:00,VALID,917.046,VALID,0,VALID,100,VALID,-0.0339617,VALID,17.9202,VALID,165,VALID,1.21267,
2007-11-29, 01:17:00,VALID,917.031,VALID,0,VALID,100,VALID,-0.0169808,VALID,17.9688,VALID,159,VALID,1.32156,
2007-11-29, 01:18:00,VALID,917.012,VALID,0,VALID,100,VALID,-0.0509425,VALID,17.979,VALID,160,VALID,1.22237,
2007-11-29, 01:19:00,VALID,916.984,VALID,0,VALID,100,VALID,-0.0679233,VALID,17.9855,VALID,160,VALID,1.1955,
2007-11-29, 01:20:00,VALID,916.981,VALID,0,VALID,100,VALID,-0.0679233,VALID,17.982,VALID,155,VALID,0.925327,
2007-11-29, 01:21:00,VALID,916.982,VALID,0,VALID,100,VALID,-0.0339617,VALID,17.9686,VALID,155,VALID,0.536272,
2007-11-29, 01:22:00,VALID,916.99,VALID,0,VALID,100,VALID,-0.0509425,VALID,17.9658,VALID,160,VALID,0.831032,
2007-11-29, 01:23:00,VALID,916.981,VALID,0,VALID,100,VALID,-0.0339617,VALID,17.9593,VALID,153,VALID,0.50465,
2007-11-29, 01:24:00,VALID,916.99,VALID,0,VALID,100,VALID,-0.0339617,VALID,17.9463,VALID,149,VALID,0.690278,
2007-11-29, 01:25:00,VALID,917.005,VALID,0,VALID,100,VALID,-0.0509425,VALID,17.9431,VALID,143,VALID,0.872954,
2007-11-29, 01:26:00,VALID,917.011,VALID,0,VALID,100,VALID,-0.0849042,VALID,17.9366,VALID,151,VALID,0.88891,
2007-11-29, 01:27:00,VALID,917.016,VALID,0,VALID,100,VALID,-0.0339617,VALID,17.9269,VALID,143,VALID,1.13775,
2007-11-29, 01:28:00,VALID,917.017,VALID,0,VALID,100,VALID,-0.0849042,VALID,17.9074,VALID,133,VALID,0.888081,
2007-11-29, 01:29:00,VALID,917.001,VALID,0,VALID,100,VALID,-0.101885,VALID,17.8785,VALID,144,VALID,0.941679,
2007-11-29, 01:30:00,VALID,916.979,VALID,0,VALID,100,VALID,-0.101885,VALID,17.8525,VALID,139,VALID,0.886265,
2007-11-29, 01:31:00,VALID,916.967,VALID,0,VALID,100,VALID,-0.0679233,VALID,17.8368,VALID,138,VALID,1.15532,
2007-11-29, 01:32:00,VALID,916.934,VALID,0,VALID,100,VALID,-0.0339617,VALID,17.8428,VALID,145,VALID,1.19804,
2007-11-29, 01:33:00,VALID,916.923,VALID,0,VALID,100,VALID,-0.0339617,VALID,17.8426,VALID,142,VALID,1.2641,
2007-11-29, 01:34:00,VALID,916.892,VALID,0,VALID,100,VALID,-0.0169808,VALID,17.8264,VALID,137,VALID,1.16895,
2007-11-29, 01:35:00,VALID,916.87,VALID,0,VALID,100,VALID,-0.0849042,VALID,17.8331,VALID,142,VALID,1.06585,
2007-11-29, 01:36:00,VALID,916.856,VALID,0,VALID,100,VALID,-0.0509425,VALID,17.8328,VALID,144,VALID,1.16606,
2007-11-29, 01:37:00,VALID,916.833,VALID,0,VALID,100,VALID,-0.0339617,VALID,17.8361,VALID,143,VALID,1.71912,
2007-11-29, 01:38:00,VALID,916.831,VALID,0,VALID,100,VALID,-0.0509425,VALID,17.8361,VALID,152,VALID,1.29241,
2007-11-29, 01:39:00,VALID,916.811,VALID,0,VALID,100,VALID,-0.0849042,VALID,17.8398,VALID,156,VALID,1.87784,
2007-11-29, 01:40:00,VALID,916.797,VALID,0,VALID,100,VALID,-0.0169808,VALID,17.8231,VALID,150,VALID,1.06613,
2007-11-29, 01:41:00,VALID,916.785,VALID,0,VALID,100,VALID,0,VALID,17.8328,VALID,161,VALID,1.36319,
2007-11-29, 01:42:00,VALID,916.766,VALID,0,VALID,100,VALID,-0.0169808,VALID,17.8134,VALID,153,VALID,1.03834,
2007-11-29, 01:43:00,VALID,916.764,VALID,0,VALID,100,VALID,-0.0679233,VALID,17.8101,VALID,153,VALID,1.3038,
2007-11-29, 01:44:00,VALID,916.751,VALID,0,VALID,100,VALID,-0.0509425,VALID,17.7874,VALID,148,VALID,1.11643,
2007-11-29, 01:45:00,VALID,916.752,VALID,0,VALID,100,VALID,-0.0679233,VALID,17.781,VALID,154,VALID,1.1981,
2007-11-29, 01:46:00,VALID,916.748,VALID,0,VALID,100,VALID,-0.0679233,VALID,17.7844,VALID,156,VALID,0.989515,
2007-11-29, 01:47:00,VALID,916.747,VALID,0,VALID,100,VALID,-0.0339617,VALID,17.7874,VALID,152,VALID,1.18182,
2007-11-29, 01:48:00,VALID,916.744,VALID,0,VALID,100,VALID,-0.0339617,VALID,17.7909,VALID,159,VALID,1.17109,
2007-11-29, 01:49:00,VALID,916.734,VALID,0,VALID,100,VALID,-0.0509425,VALID,17.7972,VALID,146,VALID,1.00436,
2007-11-29, 01:50:00,VALID,916.727,VALID,0,VALID,100,VALID,-0.0679233,VALID,17.8039,VALID,154,VALID,0.957386,
2007-11-29, 01:51:00,VALID,916.719,VALID,0,VALID,100,VALID,-0.0679233,VALID,17.8231,VALID,148,VALID,0.92223,
2007-11-29, 01:52:00,VALID,916.724,VALID,0,VALID,100,VALID,-0.0679233,VALID,17.8361,VALID,160,VALID,0.909375,
2007-11-29, 01:53:00,VALID,916.731,VALID,0,VALID,100,VALID,-0.0849042,VALID,17.8268,VALID,162,VALID,0.720238,
2007-11-29, 01:54:00,VALID,916.718,VALID,0,VALID,100,VALID,-0.0679233,VALID,17.8136,VALID,163,VALID,0.730469,
2007-11-29, 01:55:00,VALID,916.718,VALID,0,VALID,100,VALID,-0.0339617,VALID,17.8166,VALID,151,VALID,0.938453,
2007-11-29, 01:56:00,VALID,916.71,VALID,0,VALID,100,VALID,-0.0679233,VALID,17.8071,VALID,116,VALID,0.194382,
2007-11-29, 01:57:00,VALID,916.714,VALID,0,VALID,100,VALID,0.0509425,VALID,17.7796,VALID,97,VALID,0.599023,
2007-11-29, 01:58:00,VALID,916.698,VALID,0,VALID,100,VALID,0.0849042,VALID,17.7472,VALID,72,VALID,0.752046,
2007-11-29, 01:59:00,VALID,916.69,VALID,0,VALID,100,VALID,0.0679233,VALID,17.7472,VALID,85,VALID,0.757431,
2007-11-29, 02:00:00,VALID,916.688,VALID,0,VALID,100,VALID,0.0679233,VALID,17.718,VALID,84,VALID,0.663881,
2007-11-29, 02:01:00,VALID,916.678,VALID,0,VALID,100,VALID,0.0849042,VALID,17.6824,VALID,78,VALID,0.827943,
2007-11-29, 02:02:00,VALID,916.666,VALID,0,VALID,100,VALID,0.0509425,VALID,17.6726,VALID,76,VALID,0.988554,
2007-11-29, 02:03:00,VALID,916.639,VALID,0,VALID,100,VALID,0.0509425,VALID,17.6953,VALID,78,VALID,1.09299,
2007-11-29, 02:04:00,VALID,916.625,VALID,0,VALID,100,VALID,0.0679233,VALID,17.705,VALID,96,VALID,0.97309,
2007-11-29, 02:05:00,VALID,916.604,VALID,0,VALID,100,VALID,0.0509425,VALID,17.718,VALID,97,VALID,1.13728,
2007-11-29, 02:06:00,VALID,916.601,VALID,0,VALID,100,VALID,0.0169808,VALID,17.7245,VALID,99,VALID,0.994038,
2007-11-29, 02:07:00,VALID,916.568,VALID,0,VALID,100,VALID,0.0849042,VALID,17.7245,VALID,108,VALID,1.19297,
2007-11-29, 02:08:00,VALID,916.558,VALID,0,VALID,100,VALID,0.0679233,VALID,17.6789,VALID,116,VALID,0.990371,
2007-11-29, 02:09:00,VALID,916.542,VALID,0,VALID,100,VALID,0.0509425,VALID,17.6661,VALID,126,VALID,1.26344,
2007-11-29, 02:10:00,VALID,916.535,VALID,0,VALID,100,VALID,0.0849042,VALID,17.6826,VALID,132,VALID,1.55941,
2007-11-29, 02:11:00,VALID,916.518,VALID,0,VALID,100,VALID,0.0509425,VALID,17.6791,VALID,124,VALID,1.39172,
2007-11-29, 02:12:00,VALID,916.522,VALID,0,VALID,100,VALID,-0.0339617,VALID,17.674,VALID,119,VALID,1.26402,
2007-11-29, 02:13:00,VALID,916.503,VALID,0,VALID,100,VALID,-0.0169808,VALID,17.6543,VALID,110,VALID,1.09375,
2007-11-29, 02:14:00,VALID,916.497,VALID,0,VALID,100,VALID,-0.0169808,VALID,17.6506,VALID,108,VALID,1.17278,
2007-11-29, 02:15:00,VALID,916.473,VALID,0,VALID,100,VALID,-0.0339617,VALID,17.6476,VALID,119,VALID,0.932664,
2007-11-29, 02:16:00,VALID,916.445,VALID,0,VALID,100,VALID,-0.0339617,VALID,17.6376,VALID,119,VALID,1.10193,
2007-11-29, 02:17:00,VALID,916.445,VALID,0,VALID,100,VALID,0,VALID,17.6117,VALID,104,VALID,0.886161,
2007-11-29, 02:18:00,VALID,916.437,VALID,0,VALID,100,VALID,-0.0339617,VALID,17.6156,VALID,103,VALID,0.6788,
2007-11-29, 02:19:00,VALID,916.428,VALID,0,VALID,100,VALID,-0.0169808,VALID,17.5858,VALID,96,VALID,0.793968,
2007-11-29, 02:20:00,VALID,916.434,VALID,0,VALID,100,VALID,-0.0169808,VALID,17.5404,VALID,94,VALID,0.563244,
2007-11-29, 02:21:00,VALID,916.427,VALID,0,VALID,100,VALID,-0.0339617,VALID,17.5436,VALID,103,VALID,0.726744,
2007-11-29, 02:22:00,VALID,916.43,VALID,0,VALID,100,VALID,-0.0339617,VALID,17.5501,VALID,104,VALID,0.869913,
2007-11-29, 02:23:00,VALID,916.43,VALID,0,VALID,100,VALID,-0.0169808,VALID,17.5408,VALID,95,VALID,0.623512,
2007-11-29, 02:24:00,VALID,916.436,VALID,0,VALID,100,VALID,-0.0169808,VALID,17.4781,VALID,98,VALID,0.557776,
2007-11-29, 02:25:00,VALID,916.445,VALID,0,VALID,100,VALID,-0.0169808,VALID,17.4755,VALID,92,VALID,0.584517,
2007-11-29, 02:26:00,VALID,916.424,VALID,0,VALID,100,VALID,-0.0169808,VALID,17.4788,VALID,101,VALID,0.645117,
2007-11-29, 02:27:00,VALID,916.413,VALID,0,VALID,100,VALID,0,VALID,17.4656,VALID,109,VALID,0.675223,
2007-11-29, 02:28:00,VALID,916.406,VALID,0,VALID,100,VALID,-0.0169808,VALID,17.4822,VALID,111,VALID,0.791424,
2007-11-29, 02:29:00,VALID,916.4,VALID,0,VALID,100,VALID,0,VALID,17.4915,VALID,111,VALID,0.757813,
2007-11-29, 02:30:00,VALID,916.396,VALID,0,VALID,100,VALID,-0.0169808,VALID,17.4822,VALID,111,VALID,0.705163,
2007-11-29, 02:31:00,VALID,916.39,VALID,0,VALID,100,VALID,-0.0169808,VALID,17.4658,VALID,94,VALID,0.698153,
2007-11-29, 02:32:00,VALID,916.388,VALID,0,VALID,100,VALID,-0.0169808,VALID,17.4721,VALID,105,VALID,0.742188,
2007-11-29, 02:33:00,VALID,916.394,VALID,0,VALID,100,VALID,-0.0169808,VALID,17.4984,VALID,115,VALID,0.567882,
2007-11-29, 02:34:00,VALID,916.393,VALID,0,VALID,100,VALID,-0.0169808,VALID,17.5075,VALID,118,VALID,0.822359,
2007-11-29, 02:35:00,VALID,916.413,VALID,0,VALID,100,VALID,0,VALID,17.5594,VALID,119,VALID,0.778646,
2007-11-29, 02:36:00,VALID,916.407,VALID,0,VALID,100,VALID,-0.0339617,VALID,17.6156,VALID,119,VALID,0.828697,
2007-11-29, 02:37:00,VALID,916.408,VALID,0,VALID,100,VALID,-0.0509425,VALID,17.6476,VALID,119,VALID,0.819931,
2007-11-29, 02:38:00,VALID,916.404,VALID,0,VALID,100,VALID,0,VALID,17.6737,VALID,117,VALID,0.692264,
2007-11-29, 02:39:00,VALID,916.393,VALID,0,VALID,100,VALID,-0.0169808,VALID,17.6731,VALID,110,VALID,0.913132,
2007-11-29, 02:40:00,VALID,916.392,VALID,0,VALID,100,VALID,-0.0339617,VALID,17.7029,VALID,114,VALID,0.894717,
2007-11-29, 02:41:00,VALID,916.376,VALID,0,VALID,100,VALID,-0.0169808,VALID,17.6731,VALID,115,VALID,0.761418,
2007-11-29, 02:42:00,VALID,916.382,VALID,0,VALID,100,VALID,-0.0339617,VALID,17.6636,VALID,110,VALID,0.727834,
2007-11-29, 02:43:00,VALID,916.392,VALID,0,VALID,100,VALID,-0.0339617,VALID,17.6154,VALID,109,VALID,0.475632,
2007-11-29, 02:44:00,VALID,916.38,VALID,0,VALID,100,VALID,-0.0339617,VALID,17.5929,VALID,109,VALID,0.447011,
2007-11-29, 02:45:00,VALID,916.389,VALID,0,VALID,100,VALID,-0.0339617,VALID,17.5799,VALID,109,VALID,0.636433,
2007-11-29, 02:46:00,VALID,916.401,VALID,0,VALID,100,VALID,-0.0679233,VALID,17.6121,VALID,110,VALID,0.571948,
2007-11-29, 02:47:00,VALID,916.41,VALID,0,VALID,100,VALID,-0.0339617,VALID,17.6052,VALID,99,VALID,0.58647,
2007-11-29, 02:48:00,VALID,916.432,VALID,0,VALID,100,VALID,-0.0509425,VALID,17.5821,VALID,81,VALID,0.57431,
2007-11-29, 02:49:00,VALID,916.431,VALID,0,VALID,100,VALID,-0.0169808,VALID,17.5499,VALID,75,VALID,0.62173,
2007-11-29, 02:50:00,VALID,916.426,VALID,0,VALID,100,VALID,-0.0169808,VALID,17.5598,VALID,76,VALID,0.764881,
2007-11-29, 02:51:00,VALID,916.421,VALID,0,VALID,100,VALID,0,VALID,17.5823,VALID,77,VALID,1.00371,
2007-11-29, 02:52:00,VALID,916.41,VALID,0,VALID,100,VALID,-0.0509425,VALID,17.6571,VALID,81,VALID,0.939317,
2007-11-29, 02:53:00,VALID,916.403,VALID,0,VALID,100,VALID,0,VALID,17.7059,VALID,100,VALID,0.741235,
2007-11-29, 02:54:00,VALID,916.41,VALID,0,VALID,100,VALID,-0.0169808,VALID,17.6964,VALID,119,VALID,0.853646,
2007-11-29, 02:55:00,VALID,916.395,VALID,0,VALID,100,VALID,-0.0509425,VALID,17.7094,VALID,139,VALID,0.705915,
2007-11-29, 02:56:00,VALID,916.405,VALID,0,VALID,100,VALID,-0.0339617,VALID,17.7031,VALID,153,VALID,0.691211,
2007-11-29, 02:57:00,VALID,916.435,VALID,0,VALID,100,VALID,-0.0679233,VALID,17.6733,VALID,153,VALID,0.514323,
2007-11-29, 02:58:00,VALID,916.449,VALID,0,VALID,100,VALID,-0.0509425,VALID,17.6575,VALID,153,VALID,0.390451,
2007-11-29, 02:59:00,VALID,916.455,VALID,0,VALID,100,VALID,-0.0339617,VALID,17.6279,VALID,153,VALID,0.695313,
2007-11-29, 03:00:00,VALID,916.465,VALID,0,VALID,100,VALID,-0.0509425,VALID,17.6119,VALID,153,VALID,0.842076,
2007-11-29, 03:01:00,VALID,916.473,VALID,0,VALID,100,VALID,0,VALID,17.589,VALID,154,VALID,1.06055,
2007-11-29, 03:02:00,VALID,916.469,VALID,0,VALID,100,VALID,-0.0339617,VALID,17.602,VALID,158,VALID,1.09394,
2007-11-29, 03:03:00,VALID,916.449,VALID,0,VALID,100,VALID,-0.0509425,VALID,17.6186,VALID,151,VALID,1.08557,
2007-11-29, 03:04:00,VALID,916.451,VALID,0,VALID,100,VALID,-0.0509425,VALID,17.6249,VALID,148,VALID,1.1635,
2007-11-29, 03:05:00,VALID,916.446,VALID,0,VALID,100,VALID,0,VALID,17.6376,VALID,148,VALID,1.00152,
2007-11-29, 03:06:00,VALID,916.454,VALID,0,VALID,100,VALID,0,VALID,17.6374,VALID,148,VALID,1.0834,
2007-11-29, 03:07:00,VALID,916.46,VALID,0,VALID,100,VALID,0,VALID,17.6541,VALID,147,VALID,0.951427,
2007-11-29, 03:08:00,VALID,916.48,VALID,0,VALID,100,VALID,-0.0509425,VALID,17.6406,VALID,149,VALID,0.83718,
2007-11-29, 03:09:00,VALID,916.503,VALID,0,VALID,100,VALID,-0.0339617,VALID,17.6413,VALID,157,VALID,0.84654,
2007-11-29, 03:10:00,VALID,916.503,VALID,0,VALID,100,VALID,-0.0339617,VALID,17.6279,VALID,153,VALID,0.979539,
2007-11-29, 03:11:00,VALID,916.519,VALID,0,VALID,100,VALID,-0.0169808,VALID,17.6247,VALID,157,VALID,0.970954,
2007-11-29, 03:12:00,VALID,916.522,VALID,0,VALID,100,VALID,-0.0169808,VALID,17.6381,VALID,155,VALID,1.05365,
2007-11-29, 03:13:00,VALID,916.518,VALID,0,VALID,100,VALID,-0.0169808,VALID,17.6508,VALID,147,VALID,0.94478,
2007-11-29, 03:14:00,VALID,916.51,VALID,0,VALID,100,VALID,-0.101885,VALID,17.6673,VALID,147,VALID,1.24663,
2007-11-29, 03:15:00,VALID,916.492,VALID,0,VALID,100,VALID,-0.0169808,VALID,17.6992,VALID,139,VALID,1.38652,
2007-11-29, 03:16:00,VALID,916.487,VALID,0,VALID,100,VALID,-0.0339617,VALID,17.7446,VALID,139,VALID,1.57594,
2007-11-29, 03:17:00,VALID,916.473,VALID,0,VALID,100,VALID,-0.0169808,VALID,17.7766,VALID,141,VALID,1.37378,
2007-11-29, 03:18:00,VALID,916.467,VALID,0,VALID,100,VALID,-0.0679233,VALID,17.803,VALID,145,VALID,1.14773,
2007-11-29, 03:19:00,VALID,916.455,VALID,0,VALID,100,VALID,-0.0509425,VALID,17.8095,VALID,141,VALID,1.22861,
2007-11-29, 03:20:00,VALID,916.448,VALID,0,VALID,100,VALID,-0.0509425,VALID,17.8034,VALID,137,VALID,1.19159,
2007-11-29, 03:21:00,VALID,916.457,VALID,0,VALID,100,VALID,-0.0679233,VALID,17.8095,VALID,138,VALID,1.28244,
2007-11-29, 03:22:00,VALID,916.455,VALID,0,VALID,100,VALID,-0.0509425,VALID,17.8134,VALID,132,VALID,1.14773,
2007-11-29, 03:23:00,VALID,916.448,VALID,0,VALID,100,VALID,-0.0509425,VALID,17.8259,VALID,129,VALID,1.26563,
2007-11-29, 03:24:00,VALID,916.449,VALID,0,VALID,100,VALID,-0.0849042,VALID,17.8132,VALID,117,VALID,1.21512,
2007-11-29, 03:25:00,VALID,916.442,VALID,0,VALID,100,VALID,-0.0339617,VALID,17.7868,VALID,120,VALID,1.16295,
2007-11-29, 03:26:00,VALID,916.446,VALID,0,VALID,100,VALID,-0.0339617,VALID,17.758,VALID,128,VALID,1.26493,
2007-11-29, 03:27:00,VALID,916.448,VALID,0,VALID,100,VALID,-0.0849042,VALID,17.7154,VALID,133,VALID,1.12064,
2007-11-29, 03:28:00,VALID,916.455,VALID,0,VALID,100,VALID,-0.0339617,VALID,17.6967,VALID,143,VALID,1.29557,
2007-11-29, 03:29:00,VALID,916.457,VALID,0,VALID,100,VALID,-0.0679233,VALID,17.6673,VALID,148,VALID,0.883878,
2007-11-29, 03:30:00,VALID,916.465,VALID,0,VALID,100,VALID,-0.0679233,VALID,17.6381,VALID,139,VALID,1.11997,
2007-11-29, 03:31:00,VALID,916.469,VALID,0,VALID,100,VALID,-0.0679233,VALID,17.5989,VALID,129,VALID,0.873728,
2007-11-29, 03:32:00,VALID,916.465,VALID,0,VALID,100,VALID,-0.0509425,VALID,17.5605,VALID,131,VALID,1.21019,
2007-11-29, 03:33:00,VALID,916.469,VALID,0,VALID,100,VALID,-0.0679233,VALID,17.5695,VALID,139,VALID,1.33262,
2007-11-29, 03:34:00,VALID,916.472,VALID,0,VALID,100,VALID,-0.0339617,VALID,17.5693,VALID,135,VALID,1.21239,
2007-11-29, 03:35:00,VALID,916.468,VALID,0,VALID,100,VALID,-0.0509425,VALID,17.5566,VALID,129,VALID,1.35577,
2007-11-29, 03:36:00,VALID,916.467,VALID,0,VALID,100,VALID,-0.0339617,VALID,17.5661,VALID,124,VALID,1.29088,
2007-11-29, 03:37:00,VALID,916.475,VALID,0,VALID,100,VALID,-0.0169808,VALID,17.5496,VALID,126,VALID,1.08929,
2007-11-29, 03:38:00,VALID,916.473,VALID,0,VALID,100,VALID,-0.0169808,VALID,17.5561,VALID,118,VALID,1.01925,
2007-11-29, 03:39:00,VALID,916.488,VALID,0,VALID,100,VALID,-0.0169808,VALID,17.5693,VALID,116,VALID,0.718192,